CW8842 Weather Reports


time (UTC)temp
C
wind
direction
speed
KPH
gust
KPH
rain 1hr
cm
rain 24hr
cm
rain mn
cm
humidity
%
barometer
mb
20260502161626 15 77 8.0 17.7 0.00 0.00 0.00 29 1023.0
20260502160615 14 167 11.3 16.1 0.00 0.00 0.00 27 1023.0
20260502151632 12 115 9.7 14.5 0.00 0.00 0.00 35 1023.2
20260502150617 11 161 9.7 16.1 0.00 0.00 0.00 35 1022.9
20260502130617 6 189 6.4 8.0 0.00 0.00 0.00 44 1022.5
20260502123617 6 181 0.0 3.2 0.00 0.00 0.00 45 1022.4
20260502122626 5 181 1.6 3.2 0.00 0.00 0.00 43 1022.4
20260502121615 5 153 0.0 0.0 0.00 0.00 0.00 44 1022.5
20260502120627 5 149 0.0 6.4 0.00 0.00 0.00 43 1022.4
20260502115629 5 153 0.0 3.2 0.00 0.00 0.00 45 1022.4
20260502114620 5 96 0.0 0.0 0.00 0.00 0.00 44 1022.4
20260502113648 6 88 0.0 0.0 0.00 0.00 0.00 44 1022.3
20260502112619 6 96 0.0 0.0 0.00 0.00 0.00 44 1022.4
20260502111627 6 57 0.0 3.2 0.00 0.00 0.00 44 1022.4
20260502110637 5 56 3.2 4.8 0.00 0.00 0.00 44 1022.4
20260502105616 5 40 3.2 6.4 0.00 0.00 0.00 47 1022.4
20260502104624 6 22 3.2 6.4 0.00 0.00 0.00 44 1022.4
20260502103616 6 40 4.8 8.0 0.00 0.00 0.00 43 1022.5
20260502102625 6 48 4.8 8.0 0.00 0.00 0.00 44 1022.6
20260502101653 6 21 4.8 6.4 0.00 0.00 0.00 46 1022.4
20260502100620 6 38 3.2 4.8 0.00 0.00 0.00 41 1022.4
20260502090630 6 49 0.0 1.6 0.00 0.00 0.00 45 1022.3
20260502070626 7 135 0.0 0.0 0.00 0.00 0.00 45 1022.6
20260502065645 8 144 0.0 1.6 0.00 0.00 0.00 42 1022.7
20260502064613 8 142 0.0 3.2 0.00 0.00 0.00 44 1022.6
20260502063626 7 181 3.2 4.8 0.00 0.00 0.00 44 1022.5
20260502062613 7 145 1.6 4.8 0.00 0.00 0.00 45 1022.6
20260502061623 7 49 1.6 3.2 0.00 0.00 0.00 44 1022.5
20260502060616 7 48 1.6 3.2 0.00 0.00 0.00 45 1022.4
20260502055650 7 48 1.6 3.2 0.00 0.00 0.00 45 1022.5
20260502054621 7 23 3.2 3.2 0.00 0.00 0.00 46 1022.5
20260502053629 8 98 0.0 1.6 0.00 0.00 0.00 45 1022.3
20260502052618 8 98 1.6 3.2 0.00 0.00 0.00 44 1022.4
20260502051647 8 153 0.0 3.2 0.00 0.00 0.00 43 1022.4
20260502050638 8 49 0.0 1.6 0.00 0.00 0.00 44 1022.4
20260502045636 8 38 0.0 0.0 0.00 0.00 0.00 43 1022.4
20260502044624 8 32 1.6 6.4 0.00 0.00 0.00 43 1022.4
20260502043613 8 360 4.8 6.4 0.00 0.00 0.00 45 1022.4
20260502042640 9 57 1.6 4.8 0.00 0.00 0.00 40 1022.3
20260502041651 8 48 3.2 4.8 0.00 0.00 0.00 43 1022.4
20260502040618 8 22 1.6 3.2 0.00 0.00 0.00 45 1022.3
20260502035617 8 24 0.0 4.8 0.00 0.00 0.00 45 1022.2
20260502034625 9 37 1.6 4.8 0.00 0.00 0.00 45 1022.1
20260502033621 9 23 3.2 4.8 0.00 0.00 0.00 43 1022.1
20260502032613 10 26 3.2 6.4 0.00 0.00 0.00 41 1021.8
20260502031623 10 26 3.2 4.8 0.00 0.00 0.00 41 1021.7
20260502030612 10 20 3.2 6.4 0.00 0.00 0.00 38 1021.6
20260502025617 11 29 3.2 6.4 0.00 0.00 0.00 40 1021.4
20260502024624 11 16 4.8 8.0 0.00 0.00 0.00 39 1021.3
20260502023612 11 30 3.2 6.4 0.00 0.00 0.00 37 1021.3
20260502022621 12 27 4.8 6.4 0.00 0.00 0.00 39 1021.2
20260502021614 12 46 3.2 4.8 0.00 0.00 0.00 35 1021.2
20260502020647 13 10 3.2 4.8 0.00 0.00 0.00 35 1021.1
20260502015625 13 333 3.2 12.9 0.00 0.00 0.00 34 1021.1
20260502014613 13 340 6.4 14.5 0.00 0.00 0.00 32 1021.0
20260502013624 13 360 8.0 14.5 0.00 0.00 0.00 30 1021.0
20260502012632 13 327 8.0 17.7 0.00 0.00 0.00 31 1021.0
20260502011619 14 331 8.0 14.5 0.00 0.00 0.00 30 1021.0
20260502010640 14 338 8.0 17.7 0.00 0.00 0.00 28 1021.1
20260502005621 14 322 4.8 16.1 0.00 0.00 0.00 29 1021.1
20260502004615 15 53 6.4 12.9 0.00 0.00 0.00 29 1021.0
20260502003623 15 20 9.7 17.7 0.00 0.00 0.00 28 1021.0
20260502002613 15 327 9.7 22.5 0.00 0.00 0.00 28 1021.0
20260502001643 15 17 11.3 19.3 0.00 0.00 0.00 29 1021.1
20260502000616 15 360 11.3 22.5 0.00 0.00 0.00 28 1021.2
20260501235617 15 355 14.5 24.1 0.00 0.00 0.00 28 1021.1
20260501234646 15 51 9.7 20.9 0.00 0.00 0.00 28 1021.1
20260501233612 15 43 14.5 20.9 0.00 0.00 0.00 27 1021.1
20260501232625 15 342 9.7 19.3 0.00 0.00 0.00 29 1021.1
20260501231615 15 5 9.7 19.3 0.00 0.00 0.00 29 1021.1
20260501230623 15 326 8.0 17.7 0.00 0.00 0.00 28 1021.1
20260501225624 15 20 9.7 17.7 0.00 0.00 0.00 29 1021.2
20260501224615 15 334 6.4 20.9 0.00 0.00 0.00 28 1021.3
20260501223644 15 331 9.7 19.3 0.00 0.00 0.00 29 1021.4
20260501222630 15 343 11.3 22.5 0.00 0.00 0.00 32 1021.6
20260501221619 15 339 9.7 20.9 0.00 0.00 0.00 30 1021.7
20260501220630 15 310 8.0 17.7 0.00 0.00 0.00 30 1021.7
20260501215649 15 36 9.7 24.1 0.00 0.00 0.00 28 1021.8
20260501214638 15 349 8.0 25.7 0.00 0.00 0.00 29 1021.9
20260501213628 14 344 14.5 22.5 0.00 0.00 0.00 28 1022.0
20260501212618 15 5 11.3 22.5 0.00 0.00 0.00 30 1022.0
20260501211613 14 24 14.5 22.5 0.00 0.00 0.00 28 1022.2
20260501210624 14 15 8.0 19.3 0.00 0.00 0.00 29 1022.2
20260501205645 14 330 11.3 24.1 0.00 0.00 0.00 26 1022.2
20260501204612 13 321 11.3 25.7 0.00 0.00 0.00 31 1022.3
20260501203645 14 333 11.3 29.0 0.00 0.00 0.00 26 1022.2
20260501202613 13 5 11.3 22.5 0.00 0.00 0.00 26 1022.2
20260501201622 13 49 6.4 16.1 0.00 0.00 0.00 27 1022.3
20260501200620 13 219 6.4 17.7 0.00 0.00 0.00 28 1022.3
20260501195624 13 315 6.4 22.5 0.00 0.00 0.00 30 1022.5
20260501194635 12 342 9.7 27.4 0.00 0.00 0.00 33 1022.4
20260501193644 12 5 4.8 19.3 0.00 0.00 0.00 33 1022.4
20260501192631 12 276 6.4 24.1 0.00 0.00 0.00 31 1022.5
20260501191623 12 302 14.5 27.4 0.00 0.00 0.00 31 1022.6
20260501190623 12 40 14.5 20.9 0.00 0.00 0.00 34 1022.6
20260501185623 12 322 4.8 12.9 0.00 0.00 0.00 35 1022.7
20260501184628 12 323 6.4 16.1 0.00 0.00 0.00 31 1022.7
20260501183617 12 240 4.8 16.1 0.00 0.00 0.00 29 1022.9
20260501182630 11 17 9.7 17.7 0.00 0.00 0.00 29 1023.0
20260501181638 11 194 4.8 16.1 0.00 0.00 0.00 33 1023.0
20260501180612 11 241 4.8 20.9 0.00 0.00 0.00 35 1023.0
20260501175612 11 327 11.3 22.5 0.00 0.00 0.00 35 1022.9
20260501174620 11 302 11.3 17.7 0.00 0.00 0.00 34 1022.9
20260501173633 11 196 4.8 19.3 0.00 0.00 0.00 34 1023.0
20260501172620 11 336 8.0 22.5 0.00 0.00 0.00 36 1023.0
20260501171628 11 327 3.2 16.1 0.00 0.00 0.00 36 1023.1
20260501170616 11 318 4.8 17.7 0.00 0.00 0.00 34 1023.1
20260501165617 10 292 4.8 19.3 0.00 0.00 0.00 38 1023.2
20260501164631 10 317 6.4 14.5 0.00 0.00 0.00 41 1023.2
20260501163621 9 342 9.7 25.7 0.00 0.00 0.00 41 1023.4